EW2817 Weather Reports


time (UTC)temp
F
wind
direction
speed
knots
gust
knots
rain 1hr
in
rain 24hr
in
rain mn
in
humidity
%
barometer
mb
20240723044429 75 0 0.0 0.0 0.00 0.76 0.00 91 994.1
20240723042930 75 0 0.0 0.0 0.00 0.81 0.00 91 994.0
20240723041427 75 0 0.0 0.0 0.00 0.83 0.00 91 994.0
20240723034424 75 0 0.0 0.0 0.00 0.84 0.84 91 994.2
20240723031426 75 0 0.0 0.0 0.00 0.84 0.84 91 994.1
20240723025926 76 0 0.0 0.0 0.00 0.84 0.84 91 994.3
20240723024420 76 0 0.0 0.0 0.00 0.84 0.84 91 994.3
20240723022918 76 0 0.0 0.0 0.00 0.84 0.84 91 994.0
20240723021417 76 0 0.0 0.0 0.00 0.84 0.84 91 994.0
20240723015915 76 0 0.0 0.0 0.00 0.84 0.84 91 993.9
20240723011411 76 0 0.0 0.0 0.01 0.84 0.84 91 993.0
20240723005907 76 0 0.0 0.0 0.01 0.84 0.84 91 993.0
20240723004404 76 0 0.0 0.0 0.01 0.84 0.84 91 992.7
20240723002904 76 0 0.0 0.0 0.01 0.84 0.84 91 992.8
20240723001402 76 0 0.0 0.0 0.00 0.83 0.84 91 992.7
20240722235903 76 0 0.0 0.0 0.00 0.83 0.83 91 992.6
20240722234401 76 0 0.0 0.0 0.00 0.83 0.83 91 992.4
20240722232902 76 0 0.0 0.0 0.00 0.83 0.83 91 992.3
20240722225900 77 0 0.0 0.0 0.11 0.83 0.83 91 992.3
20240722224357 77 0 0.0 0.0 0.11 0.83 0.83 91 992.1
20240722221356 79 0 0.0 0.0 0.00 0.72 0.72 91 991.9
20240722215853 79 0 0.0 0.0 0.00 0.72 0.72 91 991.8
20240722214352 79 0 0.0 0.0 0.00 0.72 0.72 91 991.7
20240722212852 78 0 0.0 0.0 0.00 0.72 0.72 91 991.9
20240722211352 78 0 0.0 0.0 0.00 0.72 0.72 91 991.6
20240722204352 77 0 0.0 0.0 0.00 0.72 0.72 91 992.0
20240722202850 76 0 0.0 0.0 0.00 0.72 0.72 91 992.2
20240722201350 76 0 0.0 0.0 0.00 0.72 0.72 91 992.3
20240722195850 75 0 0.0 0.0 0.04 0.72 0.72 91 992.5
20240722194348 74 0 0.0 0.0 0.06 0.72 0.72 91 992.9
20240722192849 74 0 0.0 0.0 0.11 0.72 0.72 91 993.6
20240722191342 76 0 0.0 0.0 0.19 0.72 0.72 91 993.6
20240722185841 77 0 0.0 0.0 0.17 0.68 0.69 91 993.8
20240722184341 77 0 0.0 0.0 0.15 0.66 0.66 91 993.3
20240722182841 78 0 0.0 0.0 0.10 0.61 0.61 92 993.6
20240722181342 79 0 0.0 0.0 0.02 0.53 0.53 91 993.6
20240722175842 81 0 0.0 0.0 0.00 0.51 0.51 91 993.5
20240722172843 81 0 0.0 0.0 0.00 0.51 0.51 90 993.7
20240722171341 80 0 0.0 0.0 0.00 0.51 0.51 91 994.0
20240722165839 80 0 0.0 0.0 0.00 0.51 0.51 91 994.1
20240722164339 78 0 0.0 0.0 0.00 0.51 0.51 91 994.5
20240722162839 78 0 0.0 0.0 0.00 0.51 0.51 90 994.6
20240722161338 78 0 0.0 0.0 0.00 0.51 0.51 91 994.6
20240722155837 77 0 0.0 0.0 0.00 0.51 0.51 92 994.6
20240722154337 77 0 0.0 0.0 0.00 0.51 0.51 92 994.7
20240722152835 76 0 0.0 0.0 0.00 0.51 0.51 92 994.7
20240722151335 75 0 0.0 0.0 0.00 0.51 0.51 92 994.7
20240722145835 75 0 0.0 0.0 0.00 0.51 0.51 92 994.8
20240722144332 74 0 0.0 0.0 0.00 0.51 0.51 92 994.9
20240722141330 74 0 0.0 0.0 0.00 0.51 0.51 92 994.8
20240722135829 73 0 0.0 0.0 0.00 0.51 0.51 92 994.9
20240722132826 73 0 0.0 0.0 0.00 0.51 0.51 92 994.9
20240722131328 73 0 0.0 0.0 0.00 0.51 0.51 92 994.8
20240722125827 73 0 0.0 0.0 0.00 0.51 0.51 92 994.5
20240722124326 73 0 0.0 0.0 0.00 0.51 0.51 92 994.3
20240722122826 73 0 0.0 0.0 0.01 0.51 0.51 91 994.2
20240722121327 72 0 0.0 0.0 0.01 0.51 0.51 91 994.2
20240722115826 72 0 0.0 0.0 0.01 0.51 0.51 91 994.2
20240722114327 72 0 0.0 0.0 0.01 0.51 0.51 91 994.1
20240722112826 72 0 0.0 0.0 0.00 0.50 0.50 91 994.1
20240722111326 72 0 0.0 0.0 0.00 0.50 0.50 91 994.1
20240722105827 72 0 0.0 0.0 0.00 0.50 0.50 91 993.9
20240722104324 72 0 0.0 0.0 0.00 0.50 0.50 91 993.8
20240722101322 72 0 0.0 0.0 0.00 0.50 0.50 91 993.7
20240722095822 72 0 0.0 0.0 0.00 0.50 0.50 91 993.7
20240722094318 72 0 0.0 0.0 0.00 0.50 0.50 91 993.7
20240722091314 72 0 0.0 0.0 0.00 0.50 0.50 91 993.4
20240722085812 72 0 0.0 0.0 0.00 0.50 0.50 91 993.1
20240722084311 72 0 0.0 0.0 0.00 0.50 0.50 91 993.2
20240722082810 72 0 0.0 0.0 0.01 0.50 0.50 91 993.4
20240722074303 72 0 0.0 0.0 0.02 0.50 0.50 90 994.0
20240722072802 72 0 0.0 0.0 0.01 0.49 0.49 90 994.2
20240722071302 72 0 0.0 0.0 0.02 0.48 0.48 90 994.4
20240722065759 71 0 0.0 0.0 0.04 0.48 0.48 90 994.4
20240722064300 72 0 0.0 0.0 0.06 0.48 0.48 90 994.2
20240722062800 71 0 0.0 0.0 0.08 0.48 0.48 90 994.5
20240722055759 71 0 0.0 0.0 0.17 0.44 0.44 90 994.2
20240722054300 72 0 0.0 0.0 0.34 0.42 0.42 90 994.3
20240722052759 72 0 0.0 0.0 0.37 0.40 0.40 90 994.1